Wind_Speed
87 86 86 86 84 83 82 83 83 84 84 85 85 85 85 85 86 85 85 85 85 85 86 86 86 86 86 87 88 87 86 86 86 86 86 86 86 86 86 87 88 88 86 86 86 86 85 85 85 85 85 84 84 84 85 85 84 84 84 84 84 84 85
87 87 88 88 86 85 83 82 82 82 83 83 83 83 84 84 85 85 84 84 84 84 85 86 86 85 86 87 88 87 86 86 86 87 87 87 88 88 88 89 90 90 89 88 88 88 87 87 87 87 86 86 86 86 86 87 86 86 86 86 86 86 86
88 88 89 89 88 86 85 83 83 82 82 82 83 83 83 84 85 85 85 85 84 84 85 86 86 85 86 87 88 87 87 88 88 89 89 89 89 89 89 89 90 91 91 90 89 89 89 89 89 89 88 88 88 88 89 88 88 87 87 87 87 87 87
88 88 89 89 90 89 88 87 86 85 84 83 83 83 82 82 83 83 83 83 84 84 85 86 87 86 87 89 90 89 89 90 90 90 90 90 90 89 89 90 91 91 91 91 90 90 90 89 90 90 90 90 90 90 90 90 89 88 88 88 88 87 87
89 90 90 90 90 90 89 88 86 86 85 84 84 83 82 81 81 82 82 82 82 83 84 86 86 86 88 90 91 90 90 90 90 91 91 91 90 90 90 90 91 91 91 92 91 91 91 91 90 90 91 91 91 91 91 91 90 89 88 88 88 88 87
89 89 89 89 89 89 88 88 87 86 86 86 85 84 82 82 82 82 82 82 82 82 83 85 85 86 87 89 90 90 90 91 91 92 92 92 92 92 91 91 91 91 91 92 92 92 92 92 91 91 91 91 91 91 91 91 90 90 89 89 88 88 87
86 86 85 85 85 85 86 86 86 86 86 85 85 84 84 84 84 84 84 84 84 84 85 86 87 87 88 90 91 91 91 92 93 93 93 92 92 91 91 91 91 91 92 93 93 92 92 92 91 90 90 90 90 90 90 90 90 90 89 88 88 87 86
82 82 83 83 83 83 84 84 85 86 86 86 86 86 87 87 87 87 87 87 87 87 87 87 87 87 88 89 90 90 90 90 91 91 91 91 91 91 91 91 91 92 92 93 93 92 92 91 90 89 89 88 89 89 89 88 88 88 88 88 88 88 88
83 83 83 83 83 84 84 84 85 85 86 87 88 89 89 89 89 89 88 88 87 86 86 86 86 86 86 87 88 89 89 90 90 91 91 91 91 91 91 91 91 91 92 92 92 91 90 90 90 88 88 88 87 87 87 88 88 88 89 89 89 89 89
88 88 87 87 87 87 87 87 87 87 88 88 89 90 90 90 91 91 91 90 89 89 88 88 89 89 90 91 92 92 92 92 93 93 93 92 91 91 90 90 90 90 90 90 90 89 89 90 89 88 87 87 87 86 87 88 89 89 88 89 89 89 88
90 91 91 90 90 90 90 89 90 90 90 91 91 91 91 91 91 92 92 92 92 92 92 92 93 93 93 93 93 93 93 93 92 92 92 91 90 90 90 90 90 90 90 90 90 90 90 90 89 88 88 87 87 86 87 87 87 87 87 88 88 87 86
85 86 87 87 88 88 88 88 88 89 89 90 90 91 91 91 91 91 92 92 93 93 93 93 93 93 93 93 92 92 92 92 91 91 91 90 90 90 90 90 90 90 90 91 91 90 90 90 89 88 88 87 86 85 85 85 85 85 86 86 86 85 84
78 78 78 79 80 80 81 82 83 84 85 85 87 88 88 88 89 90 90 91 91 92 92 92 93 93 92 92 92 92 92 92 92 91 91 91 91 91 91 91 91 91 91 91 91 91 90 89 88 87 87 85 84 84 84 84 84 84 84 84 83 82 81
75 74 74 73 73 73 73 74 75 77 78 79 81 82 82 83 84 86 87 88 89 90 91 91 92 92 92 92 92 92 92 92 92 91 91 91 91 91 91 90 90 90 90 89 90 89 88 87 86 85 84 83 83 83 83 82 82 82 82 82 81 81 81
70 69 69 68 68 68 68 69 69 70 71 72 74 75 75 75 77 79 80 81 83 84 85 87 88 89 89 89 89 89 89 89 89 88 88 88 88 88 88 88 87 87 86 86 86 86 85 83 83 82 81 81 81 81 80 81 81 81 81 81 81 81 80
63 62 62 62 62 62 63 63 64 65 66 67 68 69 69 69 71 72 73 74 75 76 78 79 80 80 81 81 81 81 81 82 82 83 83 83 82 82 82 82 81 81 82 82 82 82 81 80 80 80 79 79 79 79 79 80 81 81 81 81 80 79 78
56 56 56 56 56 57 58 59 60 61 62 63 64 65 65 65 65 66 67 67 68 69 69 70 72 72 72 72 71 72 73 74 75 77 77 77 77 78 78 77 76 77 78 78 79 79 79 78 78 78 78 79 79 78 79 80 81 80 80 80 80 78 77
50 50 51 51 52 53 54 55 56 57 58 59 59 60 59 59 59 60 61 61 61 62 62 63 65 66 67 67 67 68 70 72 73 74 74 75 75 76 76 75 75 76 76 76 77 78 78 77 78 78 79 79 79 78 79 80 80 80 80 81 80 78 78
46 47 48 48 49 50 51 52 53 54 54 55 55 55 55 55 55 57 58 58 58 58 59 61 62 63 64 65 66 67 69 70 72 72 73 74 74 75 75 74 75 76 76 76 77 77 77 77 78 78 79 79 79 79 79 79 80 80 81 81 80 79 79
44 45 46 47 47 48 48 49 50 50 51 51 52 52 52 52 53 54 55 55 56 57 59 61 61 62 64 65 66 67 68 69 70 71 72 72 73 73 73 73 74 75 75 76 76 76 77 77 78 78 79 79 79 79 79 78 79 80 80 80 80 80 80
42 43 44 44 44 45 45 45 45 46 47 48 49 50 51 51 52 53 53 53 55 57 59 60 61 63 64 65 66 67 68 69 70 71 71 72 73 73 72 72 73 73 74 75 75 75 76 76 77 77 78 78 78 78 78 77 77 79 79 79 79 80 79
40 40 41 41 41 41 42 43 44 46 48 49 51 52 53 54 55 55 55 56 57 60 61 62 63 64 65 66 66 67 68 68 69 70 70 71 72 72 71 72 72 73 73 74 74 75 75 76 76 77 78 78 78 79 79 78 77 78 78 77 78 78 78
36 37 39 40 41 42 43 45 47 49 51 53 54 55 56 58 58 59 59 60 62 63 64 66 67 67 67 67 67 68 68 69 69 70 70 71 71 71 71 71 72 73 73 73 73 74 74 74 75 76 76 77 77 78 79 79 78 78 77 77 78 78 78
35 37 40 42 44 45 47 48 51 53 55 56 57 58 60 61 62 63 64 65 66 67 68 70 71 71 72 72 71 71 70 70 71 71 71 71 71 71 71 71 72 72 73 73 72 72 72 73 73 74 74 75 75 76 78 78 78 77 77 77 78 78 79
37 39 42 44 46 48 50 52 54 57 58 59 60 61 62 63 64 65 66 68 69 70 72 73 73 74 74 75 75 74 73 73 72 72 72 72 72 72 72 72 72 73 73 73 73 73 73 73 73 74 74 74 75 76 77 78 78 77 77 77 77 78 78
40 41 44 47 49 50 53 55 57 60 62 62 63 63 64 65 66 67 68 70 71 72 73 74 74 74 75 76 77 77 77 77 76 75 75 75 75 75 75 75 75 75 75 75 75 75 75 75 75 75 75 76 77 78 78 79 79 79 79 79 79 79 80
43 44 47 50 52 53 56 58 60 62 63 64 65 65 65 67 68 69 69 70 70 70 70 71 71 71 72 73 74 76 78 78 79 79 78 78 78 78 78 77 78 78 78 78 78 78 78 78 78 78 78 78 79 80 80 81 82 82 82 82 83 83 83
46 47 50 52 54 56 57 59 60 62 63 64 65 66 65 67 69 68 66 65 65 64 65 65 66 66 67 68 69 71 73 75 77 79 80 80 80 80 80 80 80 80 81 81 81 81 81 81 82 82 82 82 82 82 82 83 83 84 84 85 85 85 85
49 50 52 54 56 57 58 58 60 62 63 64 65 65 64 65 65 63 59 58 58 58 58 59 60 61 62 63 64 65 67 68 71 73 76 78 80 80 81 82 82 82 83 83 83 83 84 84 84 84 84 85 84 84 84 84 84 84 84 84 85 85 85
52 53 55 56 57 58 58 59 60 61 63 64 64 63 61 61 59 56 54 54 54 54 53 53 54 54 56 57 59 60 61 63 65 67 69 71 74 76 78 79 80 81 82 83 83 84 84 84 84 84 85 85 85 85 84 84 84 84 84 84 83 83 83
55 56 56 57 57 58 58 59 60 62 62 62 60 58 56 54 53 50 49 49 49 48 48 48 48 48 49 50 52 53 55 57 59 61 63 65 67 70 72 74 76 77 79 79 80 81 82 83 83 84 84 84 85 85 85 85 85 85 85 85 84 83 83
56 56 57 57 57 58 58 59 60 60 58 56 53 49 47 46 45 43 43 43 43 43 44 44 44 45 45 46 48 49 50 52 53 55 56 58 60 62 65 67 69 71 73 75 76 77 78 79 80 81 82 83 83 84 84 84 84 85 85 85 85 85 84
55 56 57 57 57 58 59 58 56 53 49 46 43 41 40 41 41 41 41 42 42 43 43 44 44 44 45 46 46 48 49 50 52 53 54 55 57 58 60 62 64 65 67 69 70 72 73 74 75 76 78 79 80 81 81 82 82 82 83 83 84 84 83
55 55 56 57 57 56 54 51 47 43 40 39 40 40 41 41 42 41 41 41 41 41 41 42 42 43 44 45 45 46 48 49 51 52 54 55 56 58 59 61 62 64 65 66 68 69 70 71 72 73 73 74 75 76 77 77 78 78 78 78 79 79 79
55 55 56 55 53 49 45 41 38 38 38 39 40 40 41 40 40 40 40 39 39 39 40 41 42 43 44 46 47 48 49 50 51 52 54 55 56 58 59 60 61 63 64 66 67 68 69 70 71 72 73 73 73 74 75 76 76 76 77 77 77 77 76
54 54 52 48 43 39 36 35 36 38 38 38 37 37 36 36 37 38 39 40 41 42 43 44 45 47 48 49 51 52 53 54 55 55 57 58 59 59 60 61 62 63 65 66 67 68 69 69 70 71 72 73 73 73 74 74 75 76 76 76 77 77 77
Wind_Direction
267 267 267 266 265 265 266 266 266 264 263 263 262 262 261 261 261 261 261 262 262 262 263 263 264 264 264 265 265 264 264 264 264 265 265 265 266 266 267 268 269 269 268 268 268 267 267 267 268 268 269 268 268 268 268 268 268 268 268 268 268 269 269
267 267 268 269 269 269 268 267 266 264 264 264 264 263 263 263 262 262 262 262 262 263 263 263 263 264 264 264 264 264 264 264 265 265 265 266 266 267 268 269 270 270 270 269 268 268 267 267 267 268 268 267 267 267 267 267 267 267 267 268 268 268 269
266 267 268 270 271 271 271 270 268 267 265 264 264 264 265 265 264 263 263 262 262 263 263 263 263 263 263 264 264 264 265 265 265 266 266 267 267 268 268 269 270 270 270 269 268 268 267 267 267 267 267 267 266 266 266 266 267 267 267 267 267 268 268
265 266 268 269 271 272 272 272 271 270 269 267 266 265 265 264 264 263 262 262 262 262 263 263 263 263 264 264 264 265 265 266 266 266 267 267 267 268 268 269 269 269 269 269 268 267 267 267 267 267 266 266 265 265 266 266 266 266 266 267 267 267 268
267 267 268 268 269 270 271 271 271 271 271 271 269 268 266 265 263 262 262 262 262 262 262 263 263 263 264 264 265 265 265 266 266 266 267 267 268 269 269 269 269 269 268 268 268 267 267 267 266 266 265 265 265 265 265 265 266 266 266 266 266 267 267
269 270 270 270 270 270 270 270 270 270 270 270 270 269 268 266 265 265 265 264 264 264 264 264 264 264 264 265 265 265 265 266 267 268 268 269 269 270 270 269 269 268 268 268 268 267 267 267 266 265 265 265 265 265 265 265 265 265 266 266 267 267 268
270 270 271 271 270 270 270 270 270 270 270 269 269 268 268 267 267 267 267 266 266 267 267 267 267 266 266 266 267 267 267 268 268 269 269 269 269 269 269 269 268 268 268 268 268 267 267 267 266 265 265 265 265 265 265 265 266 266 266 267 267 268 267
268 268 268 268 268 268 268 268 268 268 268 269 269 269 269 269 269 269 269 269 269 269 269 269 268 268 268 268 268 268 269 269 269 268 268 268 269 269 269 268 268 267 267 267 267 266 266 266 266 265 265 265 265 265 265 266 266 266 266 266 266 266 266
267 267 267 267 267 267 267 267 267 268 268 269 269 270 270 271 271 271 271 271 271 271 270 270 270 270 270 270 270 270 270 269 269 269 269 269 269 269 268 267 266 266 265 265 265 265 266 266 265 265 265 265 265 265 265 265 265 265 265 265 265 265 265
269 269 269 269 270 270 270 270 270 270 270 270 270 270 270 270 270 271 271 271 271 270 271 271 271 271 272 272 271 271 271 270 270 269 269 269 269 267 266 266 265 264 264 265 265 265 265 265 265 265 265 265 265 265 265 265 265 265 265 264 264 264 264
271 272 272 272 272 273 273 273 273 273 272 272 272 272 271 271 271 271 271 271 271 271 271 272 272 272 272 272 272 271 271 270 269 269 268 268 267 266 265 264 264 264 264 264 264 265 265 265 265 265 265 265 265 265 265 265 265 264 264 264 263 263 263
273 273 273 273 273 273 273 273 273 273 273 273 273 273 273 273 273 272 272 272 272 271 271 271 272 272 271 271 271 270 269 269 268 268 267 266 265 264 264 264 264 264 264 264 265 265 265 265 266 265 265 265 265 265 265 264 264 263 263 263 262 262 262
273 273 273 273 273 273 273 273 273 273 273 272 272 272 272 273 272 272 271 271 270 270 270 269 269 269 269 268 268 267 267 267 266 265 265 265 264 264 263 263 263 263 264 264 264 264 264 265 265 265 265 264 264 263 263 263 263 263 262 262 262 262 261
274 274 274 274 274 274 273 273 273 273 272 272 272 272 272 272 272 271 271 270 270 269 269 268 267 267 266 266 266 265 265 265 264 264 264 263 263 263 263 263 263 263 263 263 264 264 263 263 263 263 263 263 263 262 262 262 262 262 261 261 261 260 260
274 274 274 274 274 273 273 273 273 273 273 273 273 273 273 272 272 272 272 271 271 270 269 269 268 267 266 265 265 264 264 264 264 263 263 263 263 263 263 263 262 263 263 263 263 263 263 263 263 263 262 262 262 262 262 262 261 261 260 260 260 260 260
274 273 273 273 272 272 272 273 273 273 273 273 274 274 274 273 273 273 273 272 272 271 271 270 269 268 267 266 266 265 265 265 264 264 263 263 263 263 263 263 263 263 263 263 263 263 263 262 262 262 262 262 262 261 261 261 260 260 260 261 261 261 261
274 273 272 272 272 272 272 273 273 274 274 275 275 276 275 275 275 275 275 274 274 273 273 272 271 269 268 267 266 266 265 265 264 264 263 263 263 262 262 262 262 262 262 262 262 262 262 262 262 261 261 261 260 260 260 260 260 261 262 262 261 261 261
274 273 273 272 273 273 274 275 275 276 277 277 277 278 278 277 277 277 276 276 276 276 275 274 272 271 269 267 266 265 264 263 263 262 262 262 261 261 261 261 260 260 260 260 260 261 261 261 261 260 260 260 260 260 260 261 261 262 262 262 262 262 262
275 275 274 274 275 275 276 277 277 278 279 279 279 279 279 278 278 277 277 277 277 277 276 274 273 272 270 268 267 266 265 264 263 262 262 261 260 260 260 260 259 259 259 259 260 260 260 261 260 260 260 260 260 260 260 261 262 262 262 263 263 263 262
276 276 277 277 277 277 277 278 278 279 280 280 280 280 280 280 279 279 279 279 279 278 276 275 274 272 271 269 267 266 265 265 264 263 262 262 261 260 260 260 260 260 260 260 260 260 260 260 261 261 261 260 260 261 261 261 262 262 262 263 263 263 263
279 279 279 279 279 279 279 279 279 280 281 282 282 283 283 283 282 282 282 282 281 279 277 276 274 273 271 270 268 267 266 265 264 264 264 263 263 262 261 261 261 261 260 260 260 260 260 260 260 261 261 261 261 260 260 260 261 262 262 262 262 262 263
281 281 281 281 281 281 282 282 282 283 283 284 284 284 285 284 284 284 284 283 281 279 278 276 274 273 271 270 269 268 267 266 265 265 264 264 264 264 263 262 261 261 260 260 260 260 260 260 260 261 261 261 261 261 261 260 260 260 261 261 261 262 262
282 283 284 285 285 285 285 285 285 285 285 285 285 285 285 285 285 284 284 283 281 279 277 275 273 271 270 269 268 267 267 266 266 265 264 264 264 264 263 263 262 262 261 261 261 261 261 261 261 261 262 262 262 262 262 261 261 260 260 260 260 261 261
284 285 287 288 288 288 288 288 288 287 287 286 286 286 286 286 286 285 285 283 282 280 278 275 273 271 269 268 267 266 266 265 265 265 264 264 264 263 263 263 263 262 262 261 261 261 261 261 261 261 261 262 262 262 262 262 262 261 261 261 261 262 262
286 288 289 290 290 291 291 291 290 290 289 288 288 288 288 287 287 286 285 284 282 281 278 276 274 271 269 267 265 264 263 263 263 263 263 262 262 262 262 262 262 262 262 261 261 260 260 260 260 261 261 261 261 261 262 263 263 262 262 261 262 262 262
288 290 291 291 292 292 293 293 293 292 291 291 291 290 290 289 288 287 286 285 283 281 279 277 275 272 270 267 265 263 262 261 261 261 261 261 261 261 261 261 261 261 261 261 261 261 260 260 260 260 260 260 261 261 262 262 263 262 262 261 261 261 261
290 291 292 293 294 295 295 295 294 294 293 293 292 292 292 291 289 288 288 287 285 283 281 279 277 274 271 269 267 265 263 262 261 260 260 260 260 260 261 261 261 261 261 262 262 261 261 261 260 260 260 260 260 261 261 262 262 262 262 262 261 261 260
293 294 294 295 296 296 296 295 295 294 294 294 293 293 293 291 290 290 289 287 286 285 284 282 280 278 275 272 270 267 265 263 262 261 261 261 261 261 261 261 261 261 262 262 262 262 262 262 262 261 261 261 261 261 261 261 261 262 262 262 262 261 261
295 296 296 296 297 296 296 296 295 294 294 294 294 294 293 291 290 290 289 286 285 285 285 284 282 281 279 277 275 272 270 267 265 263 262 261 261 261 261 262 262 262 262 262 262 262 262 262 262 262 262 262 261 261 261 261 261 261 261 261 262 262 262
297 297 298 298 297 297 296 296 295 295 295 295 295 295 293 291 291 290 288 286 286 285 285 284 283 281 280 279 277 276 274 272 270 268 266 265 264 263 262 262 262 262 262 262 263 263 263 263 263 262 262 262 262 261 261 261 261 261 261 261 261 262 262
301 300 300 299 299 298 298 298 297 297 297 296 296 295 294 292 292 291 289 288 287 287 286 286 285 284 282 281 279 278 276 275 273 272 270 269 268 266 265 264 263 263 262 262 262 262 263 263 263 263 263 262 262 262 261 261 261 261 261 261 261 261 261
303 303 302 301 300 300 300 300 299 299 299 298 297 296 295 294 294 293 292 291 291 290 289 288 287 286 284 283 281 280 279 277 275 274 273 271 270 269 268 267 266 265 265 264 263 263 262 262 262 262 262 262 262 262 262 261 261 261 261 261 261 261 261
305 304 304 303 303 303 303 302 302 302 301 301 300 299 299 299 299 298 297 296 295 294 293 291 290 288 286 285 283 281 280 278 277 276 274 273 271 270 269 269 268 267 266 266 265 264 264 263 262 262 262 262 262 262 262 262 261 261 261 261 261 261 261
306 306 306 306 306 306 305 305 305 305 305 305 305 305 304 303 302 301 300 299 298 297 295 294 293 291 289 287 285 283 281 280 278 277 275 274 272 271 270 269 268 268 267 267 266 265 265 264 263 263 262 261 261 261 261 261 261 261 261 261 261 261 261
308 308 308 308 308 308 307 308 308 309 309 308 308 307 307 307 306 306 305 304 303 301 300 298 296 294 292 290 288 286 284 281 280 278 276 275 273 272 271 269 268 268 267 266 266 265 265 265 264 264 263 262 262 261 261 261 261 261 261 261 260 260 260
309 309 309 309 308 308 309 310 310 310 310 310 310 310 310 310 310 310 309 309 308 306 304 302 300 298 295 293 291 288 286 284 282 280 278 276 274 273 271 270 269 268 267 266 265 265 264 264 263 263 263 263 262 261 261 261 260 260 260 260 260 260 260
Height
5482 5481 5481 5482 5482 5482 5482 5481 5480 5479 5479 5479 5479 5479 5479 5478 5477 5478 5480 5479 5479 5480 5479 5479 5480 5481 5481 5478 5477 5479 5479 5479 5478 5476 5477 5477 5476 5477 5477 5476 5473 5474 5482 5486 5483 5484 5485 5484 5484 5484 5484 5485 5484 5484 5483 5483 5484 5485 5485 5486 5486 5485 5485
5469 5469 5468 5468 5469 5469 5470 5469 5468 5468 5467 5467 5468 5467 5466 5466 5465 5466 5467 5467 5467 5468 5466 5466 5467 5469 5469 5466 5464 5467 5467 5466 5466 5463 5464 5465 5464 5465 5465 5463 5461 5461 5465 5470 5471 5470 5471 5472 5470 5471 5473 5472 5472 5472 5470 5469 5471 5472 5472 5473 5473 5473 5473
5457 5457 5456 5455 5455 5455 5456 5455 5455 5455 5454 5455 5454 5454 5454 5454 5453 5453 5454 5454 5455 5455 5453 5453 5455 5457 5457 5453 5451 5454 5455 5454 5453 5451 5451 5453 5451 5451 5452 5451 5448 5447 5449 5454 5456 5455 5457 5458 5457 5458 5459 5459 5458 5458 5457 5457 5459 5459 5459 5460 5461 5462 5462
5445 5445 5444 5443 5442 5442 5441 5441 5441 5441 5441 5441 5441 5441 5441 5440 5440 5440 5441 5442 5442 5442 5441 5440 5442 5445 5444 5440 5439 5442 5444 5442 5441 5439 5438 5439 5439 5438 5439 5438 5435 5434 5436 5437 5439 5441 5442 5443 5444 5444 5445 5445 5445 5445 5444 5444 5445 5447 5447 5447 5448 5449 5449
5432 5431 5431 5431 5430 5429 5429 5428 5427 5427 5427 5427 5426 5427 5427 5427 5427 5427 5428 5429 5429 5429 5428 5427 5429 5432 5430 5426 5426 5430 5431 5429 5428 5426 5425 5426 5427 5426 5426 5424 5422 5422 5422 5421 5423 5426 5427 5428 5430 5431 5431 5432 5431 5431 5431 5430 5431 5433 5434 5434 5435 5436 5437
5418 5417 5417 5417 5417 5417 5416 5415 5414 5414 5414 5413 5413 5413 5413 5414 5414 5414 5414 5415 5416 5416 5415 5414 5416 5418 5417 5413 5414 5417 5418 5416 5414 5413 5412 5412 5413 5413 5411 5410 5409 5409 5408 5407 5409 5411 5410 5412 5416 5416 5417 5419 5418 5416 5416 5417 5417 5419 5420 5421 5422 5423 5425
5405 5404 5404 5404 5403 5403 5403 5402 5401 5401 5400 5400 5399 5399 5399 5400 5400 5400 5401 5401 5402 5402 5402 5401 5402 5404 5403 5401 5401 5403 5404 5402 5400 5399 5398 5399 5400 5398 5396 5395 5395 5395 5393 5393 5394 5395 5395 5397 5401 5402 5402 5404 5404 5402 5403 5404 5404 5405 5407 5409 5409 5410 5411
5393 5392 5392 5391 5391 5390 5390 5389 5388 5388 5387 5386 5385 5385 5385 5386 5386 5386 5387 5387 5388 5388 5387 5387 5387 5388 5389 5388 5387 5388 5389 5388 5387 5385 5385 5386 5386 5384 5382 5381 5381 5381 5379 5379 5380 5381 5382 5382 5384 5387 5388 5389 5390 5389 5391 5392 5391 5391 5392 5394 5394 5394 5395
5380 5380 5379 5379 5378 5377 5377 5376 5375 5375 5374 5373 5372 5371 5371 5372 5372 5372 5373 5373 5374 5374 5373 5373 5373 5373 5374 5374 5373 5373 5374 5374 5373 5371 5370 5372 5372 5369 5367 5367 5367 5366 5366 5366 5366 5367 5368 5368 5369 5373 5375 5374 5376 5378 5378 5376 5375 5376 5378 5378 5377 5379 5382
5365 5365 5365 5365 5364 5363 5362 5362 5361 5360 5360 5359 5359 5358 5358 5359 5359 5359 5359 5359 5360 5360 5360 5359 5358 5359 5359 5359 5358 5359 5359 5359 5358 5356 5356 5357 5356 5354 5353 5353 5352 5352 5353 5352 5352 5354 5355 5353 5355 5360 5360 5360 5362 5363 5361 5360 5361 5362 5363 5362 5362 5365 5369
5351 5351 5351 5351 5350 5349 5348 5347 5347 5346 5345 5344 5344 5344 5344 5346 5347 5347 5346 5346 5345 5346 5346 5345 5344 5344 5344 5344 5344 5344 5344 5343 5342 5341 5341 5341 5341 5339 5338 5339 5338 5338 5339 5338 5337 5340 5340 5339 5342 5346 5345 5345 5347 5347 5346 5345 5346 5347 5347 5348 5349 5352 5355
5338 5337 5337 5337 5336 5335 5335 5334 5333 5332 5331 5330 5329 5329 5330 5332 5334 5333 5332 5331 5330 5330 5331 5330 5330 5329 5330 5330 5330 5329 5328 5328 5327 5327 5326 5325 5325 5324 5323 5324 5325 5325 5325 5324 5323 5325 5325 5326 5329 5330 5329 5331 5333 5332 5330 5330 5330 5332 5333 5333 5335 5339 5342
5324 5324 5323 5323 5323 5322 5321 5320 5320 5318 5317 5317 5315 5314 5317 5319 5318 5317 5316 5315 5315 5315 5315 5315 5315 5315 5315 5315 5314 5314 5313 5312 5312 5311 5310 5310 5309 5308 5309 5310 5311 5311 5310 5310 5309 5309 5311 5314 5315 5314 5315 5317 5318 5315 5315 5315 5316 5318 5318 5318 5322 5326 5328
5312 5311 5311 5311 5310 5309 5309 5308 5307 5306 5304 5304 5302 5301 5304 5305 5302 5301 5300 5299 5299 5299 5299 5299 5299 5299 5300 5300 5299 5298 5298 5297 5296 5296 5295 5294 5294 5294 5295 5296 5296 5297 5297 5296 5294 5294 5298 5301 5300 5299 5301 5302 5301 5300 5302 5302 5302 5303 5303 5304 5308 5311 5311
5300 5300 5299 5299 5299 5298 5297 5296 5295 5294 5293 5291 5289 5289 5292 5291 5288 5287 5287 5285 5285 5284 5284 5284 5283 5284 5285 5285 5284 5283 5282 5281 5280 5280 5279 5279 5279 5280 5281 5281 5282 5283 5283 5282 5280 5280 5284 5286 5285 5286 5287 5287 5286 5288 5289 5289 5288 5288 5288 5290 5294 5297 5299
5290 5290 5290 5289 5289 5288 5287 5285 5284 5283 5282 5280 5278 5278 5280 5280 5277 5276 5275 5273 5272 5271 5271 5270 5269 5269 5270 5270 5270 5269 5268 5266 5265 5264 5264 5265 5266 5266 5266 5267 5269 5270 5269 5267 5267 5267 5270 5272 5272 5273 5274 5274 5274 5276 5277 5275 5273 5274 5276 5278 5281 5284 5288
5280 5281 5281 5280 5280 5279 5277 5275 5274 5272 5271 5270 5269 5268 5269 5269 5267 5265 5263 5262 5261 5260 5260 5258 5256 5256 5256 5257 5257 5256 5255 5253 5251 5251 5251 5252 5252 5252 5252 5255 5257 5256 5254 5254 5255 5254 5256 5259 5259 5259 5260 5261 5262 5264 5264 5260 5260 5264 5265 5266 5268 5273 5277
5272 5272 5272 5271 5270 5269 5267 5265 5264 5262 5261 5260 5259 5258 5258 5258 5257 5254 5253 5252 5251 5250 5249 5247 5244 5243 5244 5244 5244 5243 5242 5241 5238 5238 5239 5239 5239 5239 5240 5243 5244 5242 5241 5243 5242 5242 5244 5246 5246 5247 5247 5248 5249 5251 5251 5249 5251 5254 5253 5252 5256 5261 5263
5264 5263 5263 5262 5261 5260 5259 5256 5255 5253 5252 5251 5249 5248 5248 5248 5247 5244 5243 5242 5242 5240 5238 5235 5234 5232 5232 5232 5232 5231 5229 5228 5226 5226 5226 5226 5226 5226 5228 5230 5229 5229 5230 5231 5230 5231 5232 5233 5233 5234 5234 5235 5237 5238 5239 5240 5241 5240 5239 5241 5245 5247 5247
5257 5256 5255 5254 5253 5251 5250 5248 5247 5245 5243 5242 5240 5238 5238 5238 5237 5235 5234 5234 5233 5230 5227 5225 5223 5222 5220 5219 5219 5218 5217 5216 5214 5213 5213 5213 5213 5214 5216 5217 5216 5217 5219 5219 5219 5220 5220 5219 5220 5220 5221 5223 5224 5224 5227 5230 5228 5226 5228 5230 5231 5231 5233
5250 5248 5247 5246 5244 5243 5242 5241 5239 5237 5235 5233 5231 5229 5229 5228 5227 5225 5225 5225 5223 5219 5217 5215 5213 5210 5208 5207 5206 5205 5205 5204 5202 5201 5201 5201 5200 5202 5205 5206 5205 5205 5205 5205 5207 5208 5207 5207 5208 5207 5207 5209 5210 5211 5214 5217 5217 5214 5215 5217 5217 5218 5220
5244 5241 5239 5238 5237 5235 5234 5233 5232 5230 5227 5225 5223 5221 5220 5219 5217 5216 5216 5215 5212 5209 5206 5204 5202 5199 5197 5195 5194 5193 5192 5191 5191 5190 5190 5188 5187 5190 5193 5192 5192 5192 5192 5192 5194 5194 5195 5196 5196 5195 5195 5195 5196 5198 5199 5202 5205 5204 5203 5203 5203 5204 5206
5237 5235 5232 5230 5229 5228 5227 5226 5223 5221 5219 5216 5215 5213 5211 5209 5207 5206 5205 5204 5200 5198 5195 5192 5190 5188 5186 5184 5183 5181 5180 5179 5179 5179 5178 5177 5177 5178 5179 5178 5179 5180 5180 5181 5181 5181 5183 5184 5183 5183 5183 5183 5183 5184 5184 5186 5190 5192 5191 5190 5190 5191 5193
5231 5229 5226 5223 5222 5220 5219 5217 5214 5211 5209 5208 5206 5204 5201 5199 5197 5195 5193 5190 5187 5185 5182 5179 5177 5175 5174 5173 5171 5170 5169 5168 5167 5166 5166 5166 5165 5166 5166 5166 5166 5166 5167 5168 5169 5169 5170 5171 5171 5171 5171 5171 5171 5170 5169 5171 5175 5179 5180 5179 5179 5179 5180
5225 5223 5220 5217 5215 5213 5211 5209 5205 5201 5199 5197 5196 5194 5192 5188 5186 5183 5180 5176 5174 5170 5167 5164 5163 5162 5161 5160 5159 5158 5157 5156 5154 5154 5153 5153 5153 5153 5153 5153 5153 5153 5153 5155 5156 5157 5158 5159 5159 5159 5159 5159 5158 5157 5157 5158 5161 5164 5167 5167 5168 5168 5168
5219 5217 5213 5210 5208 5206 5203 5200 5196 5190 5187 5186 5184 5182 5181 5177 5172 5169 5167 5163 5159 5155 5152 5150 5148 5147 5146 5145 5143 5143 5143 5142 5142 5141 5140 5140 5140 5140 5140 5140 5140 5140 5140 5141 5142 5143 5145 5146 5147 5147 5147 5147 5146 5145 5146 5147 5147 5149 5151 5153 5155 5156 5156
5211 5210 5206 5202 5200 5198 5194 5191 5186 5180 5177 5175 5171 5170 5169 5163 5157 5156 5154 5149 5144 5140 5137 5135 5133 5131 5130 5129 5128 5128 5128 5128 5128 5127 5127 5127 5126 5126 5126 5126 5127 5127 5127 5127 5128 5129 5131 5132 5133 5133 5134 5134 5133 5134 5135 5134 5133 5133 5135 5138 5139 5140 5143
5204 5202 5199 5195 5192 5189 5186 5182 5177 5171 5168 5164 5160 5159 5157 5150 5144 5145 5143 5136 5131 5128 5124 5121 5119 5117 5116 5115 5114 5113 5113 5113 5113 5113 5113 5113 5113 5113 5113 5113 5113 5113 5113 5113 5114 5115 5116 5117 5118 5118 5120 5121 5121 5121 5122 5122 5120 5119 5121 5122 5123 5124 5128
5196 5194 5191 5187 5184 5181 5177 5173 5168 5162 5158 5154 5150 5148 5144 5137 5133 5134 5131 5125 5121 5118 5115 5111 5108 5105 5103 5101 5100 5099 5099 5099 5099 5099 5099 5099 5099 5099 5099 5098 5098 5098 5098 5099 5100 5100 5101 5102 5102 5103 5104 5105 5106 5108 5109 5108 5107 5107 5107 5107 5108 5110 5113
5188 5185 5182 5178 5174 5171 5167 5163 5159 5154 5149 5144 5140 5136 5131 5125 5123 5123 5120 5115 5112 5109 5106 5102 5099 5096 5094 5091 5089 5088 5087 5086 5085 5085 5085 5084 5084 5084 5084 5084 5084 5084 5084 5084 5084 5085 5085 5086 5087 5088 5088 5089 5090 5092 5094 5094 5094 5094 5093 5093 5095 5097 5099
5178 5175 5172 5169 5165 5161 5157 5153 5148 5144 5139 5134 5130 5126 5120 5116 5114 5112 5109 5106 5103 5100 5097 5094 5091 5088 5086 5083 5080 5079 5077 5075 5074 5073 5072 5072 5071 5070 5070 5070 5069 5069 5070 5070 5070 5070 5071 5071 5071 5072 5073 5073 5074 5076 5078 5079 5079 5079 5079 5080 5082 5084 5085
5168 5164 5161 5158 5155 5151 5147 5143 5138 5133 5128 5124 5120 5116 5112 5108 5106 5103 5100 5097 5095 5092 5089 5086 5083 5081 5078 5075 5072 5070 5068 5066 5064 5063 5061 5060 5059 5058 5057 5056 5055 5055 5055 5055 5055 5056 5056 5056 5057 5057 5057 5058 5058 5059 5061 5063 5064 5065 5065 5066 5067 5069 5071
5160 5155 5151 5148 5144 5140 5136 5132 5127 5123 5119 5115 5111 5108 5105 5101 5098 5096 5093 5090 5087 5084 5081 5078 5075 5073 5070 5067 5065 5062 5059 5057 5055 5053 5051 5050 5049 5047 5046 5044 5043 5042 5042 5041 5041 5041 5042 5042 5042 5042 5043 5043 5044 5044 5045 5047 5049 5050 5051 5051 5052 5055 5057
5151 5147 5142 5138 5134 5130 5126 5122 5118 5115 5111 5108 5104 5100 5098 5094 5091 5089 5086 5083 5080 5077 5074 5071 5067 5064 5062 5059 5056 5054 5051 5048 5046 5044 5042 5040 5038 5037 5035 5034 5032 5031 5030 5029 5029 5028 5028 5028 5028 5028 5029 5030 5031 5031 5031 5032 5034 5035 5036 5037 5039 5041 5043
5142 5138 5133 5129 5125 5122 5118 5114 5111 5108 5105 5102 5099 5095 5091 5088 5084 5081 5078 5075 5072 5070 5067 5064 5060 5057 5053 5050 5047 5044 5042 5039 5036 5034 5031 5029 5027 5025 5024 5023 5021 5020 5018 5017 5017 5016 5015 5015 5014 5014 5015 5016 5017 5018 5018 5019 5020 5021 5022 5024 5025 5027 5029
5134 5130 5125 5121 5118 5115 5113 5110 5107 5103 5100 5097 5094 5090 5087 5083 5079 5076 5072 5069 5065 5062 5059 5055 5052 5048 5044 5040 5037 5034 5031 5028 5025 5022 5020 5017 5015 5014 5012 5010 5009 5008 5006 5005 5004 5003 5002 5002 5002 5001 5001 5002 5003 5004 5005 5006 5007 5008 5009 5011 5012 5013 5015